Volver al catálogo

SL-16 DEB

ActivoLEO
NORAD 31795·DEBRIS·🇷🇺 Russia

Lanzado Jun 29, 2007 desde Baikonur Cosmodrome

Loading…

Próximos Pases (próximas 24 horas)

TLE

ActualizadoSource: Space-Track

Época: Sep 14, 2026, 09:11 UTC

1 31795U 07029D   26257.38274852  .00000038  00000-0  79724-4 0  9998
2 31795  70.9479 129.2991 0223344 337.4562 199.0037 13.68647049959420

Sigue SL-16 DEB en tiempo real con AllMySat

Download on the App Store